User: anonymous   Login
Location: Unspecified
(0.0000°N, 0.0000°E)
Time: 03:34:20
(UTC+00:00)
Language:

UME 2 Rocket - Orbit

View from above orbital plane
View from above orbital plane
View from above satellite
View from above satellite

Ground track
Ground track

The orbit data is extracted from the following two-line orbital elements,

1 10674U 78018A   17112.73764887 -.00000029 +00000-0 +33866-4 0  9996
2 10674 069.3601 150.3712 0161865 137.8732 343.5251 13.43602206921688
Epoch (UTC): 22 April 2017 17:42:12
Eccentricity: 0.0161865
inclination: 69.3601°
perigee height: 975 km
apogee height: 1217 km
right ascension of ascending node: 150.3712°
argument of perigee: 137.8732°
revolutions per day: 13.43602206
mean anomaly at epoch: 343.5251°
orbit number at epoch: 92168

The dashed part of the orbit path shows where the satellite is in the earth's shadow,  

DLR